Hourly Data Report for September 02, 2017

All times are specified in Local Standard Time (LST). Add 1 hour to adjust for Daylight Saving Time where and when it is observed.

CORAL HARBOUR A
NUNAVUT

64°11'36.000" N
83°21'34.000" W
62.20 m
2301002
71915
YZS

Download Data

Hourly Data (September 2017)
Hourly Data Report for September 2, 2017
Temp Definition
°C
Dew Point Temp Definition
°C
Rel Hum Definition
%
Wind Dir Definition
10's deg

Wind Spd Definition
km/h
Visibility Definition
km
Stn Press Definition
kPa
Hmdx Definition


Wind Chill Definition


Weather Definition


TIME
00:00 Legend Double Dagger 3.4 0.1 79 6 33 24.1 99.28     LegendNANA
01:00 Legend Double Dagger 3.6 -0.3 76 6 45 24.1 99.24     Cloudy
02:00 Legend Double Dagger 3.5 0.1 79 6 45 19.3 99.25     LegendNANA
03:00 Legend Double Dagger 3.2 0.7 83 5 45 19.3 99.25     LegendNANA
04:00 Legend Double Dagger 3.0 1.0 86 4 44 19.3 99.17     Rain
05:00 Legend Double Dagger 2.7 1.2 90 5 49 12.9 99.05     Rain
06:00 Legend Double Dagger 2.9 1.4 90 7 52 12.9 99.09     Rain
07:00 Legend Double Dagger 2.8 1.5 91 6 56 9.7 99.02     Rain
08:00 Legend Double Dagger 2.8 1.7 92 6 59 12.9 98.98     Rain
09:00 Legend Double Dagger 3.2 1.9 91 7 60 16.1 98.89     Rain
10:00 Legend Double Dagger 3.5 2.3 92 7 62 6.4 98.87     Rain
11:00 Legend Double Dagger 3.6 2.7 94 6 43 6.4 98.86     Rain,Fog
12:00 Legend Double Dagger 3.8 3.1 95 6 46 6.4 98.86     Rain,Fog
13:00 Legend Double Dagger 3.8 2.6 92 6 49 19.3 98.83     Rain
14:00 Legend Double Dagger 4.3 3.3 93 7 46 19.3 98.79     Rain
15:00 Legend Double Dagger 4.2 3.2 94 7 41 19.3 98.87     Rain
16:00 Legend Double Dagger 4.0 3.2 94 7 48 19.3 98.86     Rain
17:00 Legend Double Dagger 4.8 3.4 91 7 55 24.1 98.85     Rain
18:00 Legend Double Dagger 4.6 3.2 90 7 52 24.1 98.88     Rain
19:00 Legend Double Dagger 4.7 3.4 91 7 50 24.1 98.91     Cloudy
20:00 Legend Double Dagger 4.4 2.9 90 7 56 24.1 98.91     LegendNANA
21:00 Legend Double Dagger 4.9 3.4 90 6 48 24.1 98.92     LegendNANA
22:00 Legend Double Dagger 4.9 3.6 91 6 46 24.1 98.93     Cloudy
23:00 Legend Double Dagger 5.0 4.3 95 6 46 24.1 98.91     LegendNANA

Notes on Data Quality.

Legend

  • E = Estimated
  • M = Missing
  • NA = Not Available
  • ‡ = Partner data that is not subject to review by the National Climate Archives
Date modified: